Location: Camerons Lookout
(40.9833°S, 175.9333°E)
Time: 12:07:39
(UTC+00:00)

Okean 1 Rocket - Pass Details

Date: 14 January 2026
Orbit: 601 x 626 km, 82.5° (Epoch: 16 February)

Event Time Altitude Azimuth Distance (km) Brightness Sun altitude
Exits shadow 10:56:12 34° 113° (ESE) 1,024 4.1 -24.4°
Drops below altitude 10° 10:59:30 10° 156° (SSE) 2,002 6.2 -24.6°
Sets 11:01:51 0° 163° (SSE) 2,912 7.3 -24.8°
